Flag for Honduras Weather past 2 weeks in Tegucigalpa, Honduras

Now
66 °F

Drizzle. Overcast.


Feels Like: 66 °F
Forecast: N/A
Wind: 2 mph from Northeast

Location: Tegucigalpa Airport

Current Time: Dec 27, 2014 at 5:04:56 PM

Latest Report: Dec 27, 2014 at 4:00 PM


Visibility: 1 mi

Pressure: 30.09 "Hg

Humidity: 100%

Dew point: 66 °F

Location of TegucigalpaLocation

Historic Weather in Tegucigalpa — Graph

°F

Tegucigalpa temperature yesterday

Maximum temperature yesterday: 77 °F (at 4:00 PM)
Minimum temperature yesterday: 63 °F (at 11:00 PM)
Average temperature yesterday: 68 °F

Past Weeks' High & Low Weather Summary

 TemperatureHumidityPressure
High86 °F (Dec 24, 1:00 PM)100% (Dec 14, 6:00 AM)30.24 "Hg (Dec 14, 6:00 AM)
Low54 °F (Dec 19, 5:00 AM)40% (Dec 21, 1:00 PM)29.92 "Hg (Dec 22, 3:00 PM)
Average68 °F78%30.10 "Hg
* Reported Dec 12 3:00 PM — Dec 27 3:00 PM, Tegucigalpa, Weather by CustomWeather, © 2014

Note: Actual official high and low records may vary slightly from our data, if they occured in-between our weather recording intervals... More about our weather records

Advertising

Tegucigalpa weather history for previous 24 hours

 ConditionsComfort  
Time TempWeatherWind HumidityBarometerVisibility
3:00 PM
Dec 27
68 °FDrizzle. Overcast.2 mph94%30.09 "Hg3 mi
2:00 PM68 °FDrizzle. Partly sunny.7 mph88%30.09 "Hg2 mi
1:00 PM72 °FOvercast.9 mph78%30.09 "Hg5 mi
12:00 PM73 °FPartly sunny.7 mph74%30.12 "HgN/A
11:00 AM73 °FPartly sunny.9 mph74%30.15 "HgN/A
10:00 AM72 °FPartly sunny.9 mph73%30.15 "HgN/A
9:00 AM70 °FPartly sunny.9 mph83%30.15 "HgN/A
8:00 AM66 °FPartly sunny.5 mph88%30.15 "HgN/A
7:00 AM63 °FScattered clouds.No wind94%30.12 "HgN/A
6:00 AM63 °FPassing clouds.No wind88%30.09 "HgN/A
5:00 AM63 °FPassing clouds.3 mph88%30.09 "HgN/A
4:00 AM59 °FPassing clouds.No wind94%30.07 "HgN/A
3:00 AM57 °FPassing clouds.3 mph94%30.07 "HgN/A
2:00 AM59 °FPassing clouds.5 mph94%30.09 "HgN/A
1:00 AM59 °FPassing clouds.7 mph94%30.09 "HgN/A
12:00 AM59 °FPassing clouds.No wind88%30.07 "HgN/A
11:00 PM
Dec 26
63 °FPassing clouds.7 mph77%30.15 "HgN/A
10:00 PM64 °FPassing clouds.7 mph68%30.12 "HgN/A
9:00 PM64 °FPassing clouds.7 mph64%30.12 "HgN/A
8:00 PM64 °FPassing clouds.2 mph64%30.12 "HgN/A
7:00 PM66 °FPassing clouds.7 mph60%30.12 "HgN/A
6:00 PM70 °FPassing clouds.7 mph57%30.09 "HgN/A
5:00 PM73 °FPassing clouds.7 mph53%30.07 "HgN/A
Weather by CustomWeather, © 2014

See weather overviewHow to use our weather pages